Change the Weather History Date:

Monday, October 10, 2011

  Actual Average Record
Temperature  
Mean Temperature 60 °F -  
Max Temperature 66 °F 60 °F 80 °F (2013)
Min Temperature 53 °F 38 °F 26 °F (1996)
Degree Days  
Heating Degree Days 6    
Growing Degree Days 10 (Base 50)    
Moisture  
Dew Point 52 °F    
Average Humidity 75    
Maximum Humidity 88    
Minimum Humidity 55    
Precipitation  
Precipitation 0.05 in - - ()
Sea Level Pressure  
Sea Level Pressure 30.00 in    
Wind  
Wind Speed 10 mph (South)    
Max Wind Speed 14 mph    
Max Gust Speed 20 mph    
Visibility 10 miles    
Events Rain    
Averages and records for this station are not official NWS values.
T = Trace of Precipitation, MM = Missing Value Source: NWS Daily Summary

Daily Weather History Graph

Daily Weather History Graph

Search for Another Location

Airport or City:

Trip Planner

Search our weather history database for the weather conditions in past years. The results will help you decide how hot, cold, wet, or windy it might be!

Date:

Astronomy

Oct. 10, 2011 Rise Set
Actual Time 7:27 AM CDT 6:45 PM CDT
Civil Twilight 6:59 AM CDT 7:14 PM CDT
Nautical Twilight 6:25 AM CDT 7:47 PM CDT
Astronomical Twilight 5:52 AM CDT 8:20 PM CDT
Moon 5:49 PM CDT (10/10) 6:09 AM CDT (10/10)
Length of Visible Light 12h 15m
Length of Day
11h 17m
Waxing Gibbous, 98% of the Moon is Illuminated
Oct 10
Waxing Gibbous
Oct 11
Full
Oct 19
Last Quarter
Oct 26
New
Nov 2
First Quarter

Hourly Weather History & Observations

Time (CDT) Temp. Dew Point Humidity Pressure Visibility Wind Dir Wind Speed Gust Speed Precip Events Conditions
12:13 AM 62.6 °F 48.2 °F 59% 30.08 in 10.0 mi SSE 9.2 mph - N/A   Clear
12:33 AM 62.6 °F 48.2 °F 59% 30.07 in 10.0 mi SE 11.5 mph - N/A   Clear
12:53 AM 62.6 °F 48.2 °F 59% 30.07 in 10.0 mi SSE 11.5 mph - N/A   Clear
1:14 AM 62.6 °F 48.2 °F 59% 30.07 in 10.0 mi SE 12.7 mph 19.6 mph N/A   Clear
1:33 AM 62.6 °F 46.4 °F 55% 30.06 in 10.0 mi SE 13.8 mph 17.3 mph N/A   Clear
1:53 AM 62.6 °F 46.4 °F 55% 30.06 in 10.0 mi SSE 12.7 mph - N/A   Clear
2:13 AM 60.8 °F 46.4 °F 59% 30.06 in 10.0 mi SSE 11.5 mph 17.3 mph N/A   Clear
2:33 AM 60.8 °F 46.4 °F 59% 30.05 in 10.0 mi SE 10.4 mph - N/A   Clear
2:53 AM 59.0 °F 48.2 °F 67% 30.06 in 10.0 mi SSE 9.2 mph - N/A   Clear
3:33 AM 59.0 °F 48.2 °F 67% 30.05 in 10.0 mi SSE 10.4 mph 16.1 mph N/A   Clear
3:53 AM 59.0 °F 48.2 °F 67% 30.05 in 10.0 mi SSE 10.4 mph - N/A   Clear
4:13 AM 59.0 °F 48.2 °F 67% 30.04 in 10.0 mi SSE 9.2 mph - N/A   Clear
4:33 AM 57.2 °F 48.2 °F 72% 30.04 in 10.0 mi SSE 9.2 mph - N/A   Clear
5:13 AM 55.4 °F 48.2 °F 77% 30.03 in 10.0 mi SSE 8.1 mph - N/A   Clear
5:33 AM 55.4 °F 48.2 °F 77% 30.03 in 10.0 mi SSE 8.1 mph - N/A   Clear
5:53 AM 55.4 °F 46.4 °F 72% 30.03 in 10.0 mi SSE 6.9 mph - N/A   Clear
6:13 AM 55.4 °F 48.2 °F 77% 30.03 in 10.0 mi SSE 8.1 mph - N/A   Clear
6:33 AM 53.6 °F 48.2 °F 82% 30.03 in 10.0 mi South 5.8 mph - N/A   Scattered Clouds
6:53 AM 53.6 °F 48.2 °F 82% 30.03 in 10.0 mi South 8.1 mph - N/A   Scattered Clouds
7:33 AM 53.6 °F 48.2 °F 82% 30.02 in 10.0 mi SSE 9.2 mph - N/A   Clear
8:13 AM 55.4 °F 48.2 °F 77% 30.02 in 10.0 mi SSE 10.4 mph - N/A   Clear
8:33 AM 55.4 °F 50.0 °F 82% 30.02 in 10.0 mi SSE 10.4 mph - N/A   Clear
8:53 AM 55.4 °F 50.0 °F 82% 30.02 in 10.0 mi SSE 11.5 mph - N/A   Scattered Clouds
9:13 AM 57.2 °F 50.0 °F 77% 30.02 in 10.0 mi SSE 9.2 mph - N/A   Scattered Clouds
9:34 AM 59.0 °F 50.0 °F 72% 30.03 in 10.0 mi SW 9.2 mph - N/A   Scattered Clouds
9:53 AM 59.0 °F 51.8 °F 77% 30.03 in 10.0 mi SSW 6.9 mph - N/A   Scattered Clouds
10:13 AM 60.8 °F 51.8 °F 72% 30.03 in 10.0 mi SSW 10.4 mph 16.1 mph N/A   Clear
10:33 AM 60.8 °F 51.8 °F 72% 30.02 in 10.0 mi SSW 10.4 mph - N/A   Clear
10:53 AM 60.8 °F 51.8 °F 72% 30.03 in 10.0 mi SSW 9.2 mph - N/A   Clear
11:13 AM 60.8 °F 53.6 °F 77% 30.02 in 10.0 mi SSW 8.1 mph 18.4 mph N/A   Scattered Clouds
11:32 AM 60.8 °F 53.6 °F 77% 30.03 in 10.0 mi SSW 9.2 mph - N/A   Scattered Clouds
11:53 AM 59.0 °F 55.4 °F 88% 30.03 in 7.0 mi SSW 9.2 mph - N/A Rain Rain
12:13 PM 59.0 °F 55.4 °F 88% 30.02 in 4.0 mi South 8.1 mph - 0.02 in Rain Light Rain
12:32 PM 59.0 °F 55.4 °F 88% 30.02 in 7.0 mi South 8.1 mph - 0.03 in Rain Light Rain
12:55 PM 59.0 °F 55.4 °F 88% 30.01 in 7.0 mi South 11.5 mph - 0.04 in   Drizzle
1:13 PM 59.0 °F 55.4 °F 88% 30.01 in 7.0 mi South 6.9 mph - 0.01 in Rain Light Rain
1:32 PM 59.0 °F 55.4 °F 88% 30.00 in 10.0 mi South 8.1 mph - 0.01 in Rain Light Rain
1:53 PM 59.0 °F 55.4 °F 88% 29.99 in 10.0 mi South 9.2 mph - 0.01 in Rain Light Rain
1:55 PM 59.0 °F 55.4 °F 88% 29.99 in 10.0 mi South 8.1 mph - 0.01 in Rain Light Rain
2:13 PM 60.8 °F 57.2 °F 88% 29.98 in 10.0 mi South 10.4 mph - N/A   Mostly Cloudy
2:32 PM 60.8 °F 57.2 °F 88% 29.97 in 10.0 mi SSW 10.4 mph - N/A   Mostly Cloudy
2:53 PM 62.6 °F 55.4 °F 77% 29.97 in 10.0 mi South 13.8 mph - N/A   Scattered Clouds
3:13 PM 62.6 °F 55.4 °F 77% 29.96 in 10.0 mi South 12.7 mph - N/A   Mostly Cloudy
3:53 PM 64.4 °F 55.4 °F 73% 29.95 in 10.0 mi South 13.8 mph - N/A   Scattered Clouds
4:13 PM 64.4 °F 53.6 °F 68% 29.95 in 10.0 mi South 11.5 mph - N/A   Scattered Clouds
4:33 PM 64.4 °F 53.6 °F 68% 29.94 in 10.0 mi South 11.5 mph - N/A   Scattered Clouds
4:53 PM 66.2 °F 53.6 °F 64% 29.93 in 10.0 mi South 13.8 mph 17.3 mph N/A   Scattered Clouds
5:13 PM 66.2 °F 53.6 °F 64% 29.93 in 10.0 mi South 11.5 mph 16.1 mph N/A   Scattered Clouds
5:33 PM 64.4 °F 53.6 °F 68% 29.92 in 10.0 mi South 11.5 mph - N/A   Scattered Clouds
5:53 PM 64.4 °F 53.6 °F 68% 29.92 in 10.0 mi SSE 11.5 mph - N/A   Scattered Clouds
6:13 PM 64.4 °F 53.6 °F 68% 29.92 in 10.0 mi SSE 6.9 mph - N/A   Clear
6:33 PM 62.6 °F 53.6 °F 72% 29.92 in 10.0 mi South 8.1 mph - N/A   Clear
6:53 PM 60.8 °F 53.6 °F 77% 29.92 in 10.0 mi SSE 8.1 mph - N/A   Clear
7:13 PM 60.8 °F 53.6 °F 77% 29.93 in 10.0 mi SSE 6.9 mph - N/A   Clear
7:33 PM 60.8 °F 53.6 °F 77% 29.93 in 10.0 mi SSE 8.1 mph - N/A   Clear
7:53 PM 59.0 °F 53.6 °F 82% 29.94 in 10.0 mi South 6.9 mph - N/A   Clear
8:13 PM 59.0 °F 53.6 °F 82% 29.94 in 7.0 mi South 8.1 mph - N/A   Clear
8:33 PM 59.0 °F 53.6 °F 82% 29.94 in 10.0 mi South 9.2 mph - N/A   Clear
8:53 PM 57.2 °F 53.6 °F 88% 29.94 in 10.0 mi South 8.1 mph - N/A   Clear
9:13 PM 55.4 °F 51.8 °F 88% 29.94 in 5.0 mi South 8.1 mph - N/A   Clear
9:33 PM 55.4 °F 51.8 °F 88% 29.94 in 10.0 mi South 6.9 mph - N/A   Clear
9:52 PM 55.4 °F 51.8 °F 88% 29.94 in 10.0 mi South 6.9 mph - N/A   Clear
10:33 PM 53.6 °F 51.8 °F 94% 29.94 in 10.0 mi South 8.1 mph - N/A   Clear
10:53 PM 53.6 °F 50.0 °F 88% 29.94 in 10.0 mi South 8.1 mph - N/A   Clear
11:13 PM 53.6 °F 50.0 °F 88% 29.94 in 10.0 mi South 6.9 mph - N/A   Clear
11:33 PM 53.6 °F 50.0 °F 88% 29.93 in 10.0 mi South 6.9 mph - N/A   Clear
11:52 PM 51.8 °F 50.0 °F 94% 29.93 in 10.0 mi South 6.9 mph - N/A   Clear